| time (UTC) | temp F | wind direction | speed MPH | gust MPH | rain 1hr in | rain 24hr in | rain mn in | humidity % | barometer mb |
| 20260504012309 | 50 | 253 | 2.0 | 3.0 | 0.00 | 0.00 | 0.00 | 95 | 1012.2 |
| 20260504010309 | 50 | 269 | 2.0 | 3.0 | 0.00 | 0.00 | 0.00 | 94 | 1012.2 |
| 20260504005310 | 51 | 46 | 0.0 | 2.0 | 0.00 | 0.00 | 0.00 | 94 | 1012.2 |
| 20260504004309 | 51 | 283 | 1.0 | 2.0 | 0.00 | 0.00 | 0.00 | 94 | 1012.3 |
| 20260504003309 | 51 | 295 | 0.0 | 2.0 | 0.00 | 0.00 | 0.00 | 94 | 1012.3 |
| 20260504002309 | 51 | 302 | 1.0 | 1.0 | 0.00 | 0.00 | 0.00 | 94 | 1012.3 |
| 20260504001309 | 51 | 152 | 1.0 | 2.0 | 0.00 | 0.00 | 0.00 | 94 | 1012.3 |
| 20260504000309 | 52 | 206 | 1.0 | 2.0 | 0.00 | 0.00 | 0.00 | 94 | 1012.4 |
| 20260503235309 | 52 | 178 | 1.0 | 2.0 | 0.00 | 0.00 | 0.00 | 94 | 1012.4 |
| 20260503234309 | 52 | 284 | 3.0 | 4.0 | 0.00 | 0.00 | 0.00 | 94 | 1012.5 |
| 20260503233309 | 52 | 269 | 1.0 | 2.0 | 0.00 | 0.00 | 0.00 | 95 | 1012.6 |
| 20260503232309 | 53 | 283 | 2.0 | 2.0 | 0.00 | 0.00 | 0.00 | 95 | 1012.5 |
| 20260503231309 | 53 | 283 | 2.0 | 2.0 | 0.00 | 0.00 | 0.00 | 95 | 1012.5 |
| 20260503230309 | 53 | 135 | 0.0 | 1.0 | 0.00 | 0.00 | 0.00 | 95 | 1012.5 |
| 20260503225309 | 53 | 46 | 0.0 | 1.0 | 0.00 | 0.00 | 0.00 | 95 | 1012.5 |
| 20260503224309 | 53 | 46 | 0.0 | 1.0 | 0.00 | 0.00 | 0.00 | 95 | 1012.5 |
| 20260503223310 | 53 | 178 | 0.0 | 2.0 | 0.00 | 0.00 | 0.00 | 95 | 1012.6 |
| 20260503222310 | 53 | 286 | 1.0 | 2.0 | 0.00 | 0.00 | 0.00 | 95 | 1012.5 |
| 20260503221311 | 53 | 306 | 1.0 | 2.0 | 0.00 | 0.00 | 0.00 | 94 | 1012.5 |
| 20260503220310 | 53 | 324 | 1.0 | 1.0 | 0.00 | 0.00 | 0.00 | 94 | 1012.4 |
| 20260503215310 | 53 | 127 | 1.0 | 2.0 | 0.00 | 0.13 | 0.13 | 94 | 1012.5 |
| 20260503214310 | 53 | 245 | 1.0 | 2.0 | 0.00 | 0.13 | 0.13 | 94 | 1012.4 |
| 20260503213310 | 53 | 89 | 0.0 | 2.0 | 0.00 | 0.13 | 0.13 | 94 | 1012.1 |
| 20260503212310 | 54 | 152 | 0.0 | 2.0 | 0.00 | 0.13 | 0.13 | 94 | 1012.1 |
| 20260503211310 | 54 | 321 | 2.0 | 3.0 | 0.00 | 0.13 | 0.13 | 94 | 1012.2 |
| 20260503210309 | 54 | 331 | 2.0 | 3.0 | 0.00 | 0.13 | 0.13 | 94 | 1012.1 |
| 20260503205311 | 54 | 314 | 1.0 | 2.0 | 0.00 | 0.13 | 0.13 | 94 | 1012.1 |
| 20260503203311 | 54 | 1 | 2.0 | 4.0 | 0.00 | 0.13 | 0.13 | 94 | 1011.8 |
| 20260503201309 | 54 | 18 | 2.0 | 5.0 | 0.00 | 0.13 | 0.13 | 93 | 1011.8 |
| 20260503200309 | 54 | 20 | 3.0 | 5.0 | 0.00 | 0.13 | 0.13 | 93 | 1011.7 |
| 20260503194309 | 55 | 349 | 1.0 | 4.0 | 0.00 | 0.13 | 0.13 | 92 | 1011.3 |
| 20260503193310 | 55 | 300 | 2.0 | 6.0 | 0.00 | 0.13 | 0.13 | 92 | 1011.2 |
| 20260503192309 | 55 | 47 | 3.0 | 5.0 | 0.00 | 0.13 | 0.13 | 92 | 1010.9 |
| 20260503191309 | 56 | 307 | 3.0 | 7.0 | 0.00 | 0.13 | 0.13 | 92 | 1010.9 |
| 20260503185310 | 57 | 336 | 4.0 | 5.0 | 0.00 | 0.13 | 0.13 | 92 | 1010.8 |
| 20260503184309 | 57 | 6 | 4.0 | 7.0 | 0.00 | 0.13 | 0.13 | 92 | 1010.8 |
| 20260503183309 | 57 | 352 | 3.0 | 7.0 | 0.00 | 0.13 | 0.13 | 93 | 1010.6 |
| 20260503182310 | 57 | 20 | 5.0 | 8.0 | 0.00 | 0.13 | 0.13 | 93 | 1010.5 |
| 20260503181309 | 57 | 23 | 2.0 | 6.0 | 0.00 | 0.13 | 0.13 | 93 | 1010.5 |
| 20260503180309 | 58 | 316 | 5.0 | 8.0 | 0.00 | 0.13 | 0.13 | 92 | 1010.3 |
| 20260503175309 | 57 | 338 | 2.0 | 5.0 | 0.00 | 0.13 | 0.13 | 92 | 1010.2 |
| 20260503174309 | 57 | 331 | 3.0 | 5.0 | 0.00 | 0.13 | 0.13 | 91 | 1010.1 |
| 20260503173309 | 58 | 1 | 3.0 | 5.0 | 0.00 | 0.13 | 0.13 | 91 | 1010.0 |
| 20260503172309 | 58 | 340 | 1.0 | 2.0 | 0.00 | 0.13 | 0.13 | 90 | 1009.9 |
| 20260503171309 | 58 | 39 | 1.0 | 3.0 | 0.00 | 0.13 | 0.13 | 91 | 1009.8 |
| 20260503170309 | 58 | 135 | 1.0 | 3.0 | 0.00 | 0.13 | 0.13 | 90 | 1009.9 |
| 20260503140309 | 57 | 84 | 2.0 | 6.0 | 0.03 | 0.10 | 0.10 | 94 | 1010.1 |
| 20260503131309 | 57 | 1 | 1.0 | 4.0 | 0.03 | 0.08 | 0.08 | 94 | 1010.4 |
| 20260503130309 | 57 | 344 | 2.0 | 5.0 | 0.03 | 0.07 | 0.07 | 93 | 1010.4 |
| 20260503110310 | 63 | 314 | 3.0 | 5.0 | 0.00 | 0.01 | 0.01 | 79 | 1010.1 |
| 20260503090310 | 60 | 259 | 4.0 | 11.0 | 0.00 | 0.01 | 0.01 | 89 | 1010.7 |
| 20260503081310 | 57 | 223 | 2.0 | 7.0 | 0.00 | 0.01 | 0.01 | 94 | 1010.7 |
| 20260503080310 | 57 | 228 | 3.0 | 7.0 | 0.00 | 0.01 | 0.01 | 95 | 1010.6 |
| 20260503072310 | 56 | 214 | 2.0 | 9.0 | 0.00 | 0.01 | 0.01 | 96 | 1010.7 |
| 20260503071310 | 56 | 210 | 3.0 | 7.0 | 0.00 | 0.01 | 0.01 | 96 | 1010.6 |
| 20260503070310 | 55 | 209 | 3.0 | 8.0 | 0.01 | 0.01 | 0.01 | 95 | 1010.5 |
| 20260503060310 | 54 | 220 | 2.0 | 5.0 | 0.00 | 0.00 | 0.00 | 94 | 1010.2 |
| 20260503054309 | 54 | 253 | 3.0 | 6.0 | 0.00 | 0.00 | 0.00 | 94 | 1010.1 |
| 20260503053309 | 54 | 245 | 2.0 | 6.0 | 0.00 | 0.00 | 0.00 | 94 | 1010.1 |
| 20260503052309 | 54 | 211 | 3.0 | 6.0 | 0.00 | 0.00 | 0.00 | 94 | 1010.0 |
| 20260503051309 | 54 | 117 | 2.0 | 5.0 | 0.00 | 0.00 | 0.00 | 94 | 1010.0 |
| 20260503050309 | 54 | 178 | 2.0 | 5.0 | 0.00 | 0.00 | 0.00 | 94 | 1010.1 |
| 20260503045309 | 54 | 209 | 2.0 | 6.0 | 0.00 | 0.00 | 0.00 | 94 | 1010.0 |
| 20260503043312 | 54 | 227 | 4.0 | 7.0 | 0.00 | 0.00 | 0.00 | 94 | 1010.0 |
| 20260503042312 | 54 | 223 | 4.0 | 7.0 | 0.00 | 0.00 | 0.00 | 94 | 1010.1 |
| 20260503041312 | 54 | 225 | 3.0 | 6.0 | 0.00 | 0.00 | 0.00 | 94 | 1010.2 |
| 20260503040312 | 54 | 220 | 4.0 | 8.0 | 0.00 | 0.00 | 0.00 | 94 | 1010.2 |
| 20260503035312 | 54 | 221 | 3.0 | 8.0 | 0.00 | 0.00 | 0.00 | 94 | 1010.2 |
| 20260503034313 | 54 | 269 | 3.0 | 6.0 | 0.00 | 0.00 | 0.00 | 94 | 1010.2 |
| 20260503031312 | 54 | 269 | 4.0 | 8.0 | 0.00 | 0.00 | 0.00 | 94 | 1010.3 |
| 20260503030312 | 55 | 231 | 5.0 | 8.0 | 0.00 | 0.00 | 0.00 | 94 | 1010.2 |
| 20260503025312 | 55 | 248 | 2.0 | 6.0 | 0.00 | 0.00 | 0.00 | 94 | 1010.3 |
| 20260503024312 | 55 | 221 | 3.0 | 6.0 | 0.00 | 0.00 | 0.00 | 94 | 1010.2 |
| 20260503023312 | 55 | 279 | 2.0 | 6.0 | 0.00 | 0.00 | 0.00 | 94 | 1010.2 |
| 20260503022312 | 55 | 234 | 2.0 | 5.0 | 0.00 | 0.00 | 0.00 | 94 | 1010.3 |
| 20260503021312 | 55 | 228 | 3.0 | 5.0 | 0.00 | 0.00 | 0.00 | 94 | 1010.2 |
| 20260503020312 | 55 | 252 | 3.0 | 6.0 | 0.00 | 0.00 | 0.00 | 94 | 1010.2 |
| 20260503015312 | 55 | 286 | 2.0 | 5.0 | 0.00 | 0.00 | 0.00 | 95 | 1010.4 |
| 20260503014313 | 55 | 178 | 4.0 | 7.0 | 0.00 | 0.00 | 0.00 | 95 | 1010.5 |
| 20260503013313 | 55 | 234 | 2.0 | 7.0 | 0.00 | 0.00 | 0.00 | 95 | 1010.6 |